Location: Alpine Heights
(32.8181°N, 116.7809°W)
Time: 00:00:05
(UTC+00:00)

Cosmos 1356 Rocket - Pass Details

Date: 14 April 2021
Orbit: 543 x 597 km, 81.2° (Epoch: 15 May)

Event Time Altitude Azimuth Distance (km) Brightness Sun altitude
Rises 12:16:33 0° 344° (NNW) 2,745 7.0 -13.3°
Reaches altitude 10° 12:18:46 10° 338° (NNW) 1,854 6.0 -12.8°
Maximum altitude 12:22:41 46° 266° (W) 770 3.6 -12.1°
Drops below altitude 10° 12:26:39 10° 192° (SSW) 1,874 5.7 -11.3°
Sets 12:28:54 0° 187° (S) 2,778 6.7 -10.8°
